Powrót do katalogu

COSMOS 1736

AktywnyNawigacjaLEO
NORAD 16647·PAYLOAD·🇷🇺 Russia

Wystrzelony Mar 21, 1986 z Baikonur Cosmodrome

Loading…

Następne Przeloty (najbliższe 24 godziny)

TLE

ŚwieżeSource: Space-Track

Epoka: Sep 14, 2026, 11:06 UTC

1 16647U 86024A   26257.46258236 -.00000090  00000-0 -22092-5 0  9993
2 16647  64.9877  61.1114 0046537 200.7790 189.4360 13.79568865 40723

Śledź COSMOS 1736 w czasie rzeczywistym z AllMySat

Download on the App Store